Time,TemperatureF,DewpointF,PressureIn,WindDirection,WindDirectionDegrees,WindSpeedMPH,WindSpeedGustMPH,Humidity,HourlyPrecipIn,Conditions,Clouds,dailyrainin,SoftwareType,DateUTC
2013-01-12 00:03:00,48.6,44.0,28.89,SE,135,2.0,2.0,84,0.00,,,0.00,WUHU21623XXSP,2013-01-12 06:03:00,
2013-01-12 01:03:00,47.8,43.2,28.90,SW,225,3.6,3.6,84,0.00,,,0.00,WUHU21623XXSP,2013-01-12 07:03:00,
2013-01-12 02:03:00,47.7,43.1,28.92,SSE,158,1.6,1.6,84,0.00,,,0.00,WUHU21623XXSP,2013-01-12 08:03:00,
2013-01-12 03:03:00,48.0,43.4,28.95,SE,135,2.2,2.2,84,0.00,,,0.00,WUHU21623XXSP,2013-01-12 09:03:00,
2013-01-12 04:03:00,48.0,43.4,28.96,SW,225,1.6,1.6,84,0.00,,,0.00,WUHU21623XXSP,2013-01-12 10:03:00,
2013-01-12 05:03:00,47.5,42.9,29.03,West,270,0.2,0.2,84,0.00,,,0.00,WUHU21623XXSP,2013-01-12 11:03:00,
2013-01-12 06:03:00,40.8,35.1,29.06,West,270,1.1,1.1,80,0.00,,,0.00,WUHU21623XXSP,2013-01-12 12:03:00,
2013-01-12 07:42:00,34.3,28.1,29.16,West,270,7.8,7.8,78,0.00,,,0.00,WUHU21623XXSP,2013-01-12 13:42:00,
2013-01-12 07:47:00,34.3,28.1,29.16,NW,315,7.4,7.8,78,0.00,,,0.00,WUHU21623XXSP,2013-01-12 13:47:00,
2013-01-12 07:52:00,34.3,28.1,29.16,West,270,7.2,7.8,78,0.00,,,0.00,WUHU21623XXSP,2013-01-12 13:52:00,
2013-01-12 07:57:00,34.3,28.1,29.17,West,270,7.2,7.2,78,0.00,,,0.00,WUHU21623XXSP,2013-01-12 13:57:00,
2013-01-12 08:02:00,34.3,28.1,29.17,West,270,7.2,7.2,78,0.00,,,0.00,WUHU21623XXSP,2013-01-12 14:02:00,
2013-01-12 08:14:00,33.8,27.6,29.17,West,270,4.0,4.0,78,0.00,,,0.00,WUHU21623XXSP,2013-01-12 14:14:00,
2013-01-12 08:19:00,33.8,27.6,29.17,West,270,1.6,4.0,78,0.00,,,0.00,WUHU21623XXSP,2013-01-12 14:19:00,
2013-01-12 08:24:00,33.6,27.4,29.17,West,270,5.4,5.4,78,0.00,,,0.00,WUHU21623XXSP,2013-01-12 14:24:00,
2013-01-12 08:29:00,33.6,27.4,29.18,West,270,7.6,7.6,78,0.00,,,0.00,WUHU21623XXSP,2013-01-12 14:29:00,
2013-01-12 08:34:00,34.0,27.8,29.18,NW,315,3.1,7.6,78,0.00,,,0.00,WUHU21623XXSP,2013-01-12 14:34:00,
2013-01-12 08:39:00,34.0,27.8,29.18,NW,315,3.1,7.4,77,0.00,,,0.00,WUHU21623XXSP,2013-01-12 14:39:00,
2013-01-12 08:44:00,34.0,27.4,29.19,West,270,4.7,4.7,77,0.00,,,0.00,WUHU21623XXSP,2013-01-12 14:44:00,
2013-01-12 08:49:00,34.0,27.6,29.19,West,270,4.7,4.7,77,0.00,,,0.00,WUHU21623XXSP,2013-01-12 14:49:00,
2013-01-12 08:54:00,34.0,27.4,29.19,WNW,292,0.9,4.7,77,0.00,,,0.00,WUHU21623XXSP,2013-01-12 14:54:00,
2013-01-12 08:59:00,34.0,27.4,29.19,NW,315,4.5,4.5,76,0.00,,,0.00,WUHU21623XXSP,2013-01-12 14:59:00,
2013-01-12 09:04:00,34.0,27.1,29.19,NW,315,4.5,4.5,76,0.00,,,0.00,WUHU21623XXSP,2013-01-12 15:04:00,
2013-01-12 09:09:00,33.8,26.9,29.18,NW,315,3.1,4.5,76,0.00,,,0.00,WUHU21623XXSP,2013-01-12 15:09:00,
2013-01-12 09:14:00,33.8,26.9,29.18,NW,315,3.1,3.1,76,0.00,,,0.00,WUHU21623XXSP,2013-01-12 15:14:00,
2013-01-12 09:19:00,33.8,26.9,29.18,NW,315,3.1,3.1,76,0.00,,,0.00,WUHU21623XXSP,2013-01-12 15:19:00,
2013-01-12 09:24:00,33.8,26.9,29.18,NW,315,3.1,3.1,76,0.00,,,0.00,WUHU21623XXSP,2013-01-12 15:24:00,
2013-01-12 12:39:00,34.0,24.1,29.21,WNW,292,4.0,4.0,67,0.00,,,0.00,WUHU21623XXSP,2013-01-12 18:39:00,
2013-01-12 12:44:00,34.0,23.7,29.21,WNW,292,4.0,4.0,66,0.00,,,0.00,WUHU21623XXSP,2013-01-12 18:44:00,
2013-01-12 12:49:00,34.0,23.7,29.22,WNW,292,4.0,4.0,66,0.00,,,0.00,WUHU21623XXSP,2013-01-12 18:49:00,
2013-01-12 12:54:00,34.0,23.7,29.22,WNW,292,4.0,4.0,66,0.00,,,0.00,WUHU21623XXSP,2013-01-12 18:54:00,
2013-01-12 15:14:00,32.2,22.5,29.25,WNW,292,6.5,6.5,67,0.00,,,0.00,WUHU21623XXSP,2013-01-12 21:14:00,
2013-01-12 15:19:00,32.4,23.0,29.26,NNW,337,2.0,6.5,68,0.00,,,0.00,WUHU21623XXSP,2013-01-12 21:19:00,
2013-01-12 15:24:00,32.2,22.6,29.25,NNW,337,2.0,6.5,67,0.00,,,0.00,WUHU21623XXSP,2013-01-12 21:24:00,
2013-01-12 15:29:00,32.2,22.8,29.25,NNW,337,2.0,2.0,68,0.00,,,0.00,WUHU21623XXSP,2013-01-12 21:29:00,
2013-01-12 15:34:00,32.2,22.8,29.24,NNW,337,2.0,2.0,68,0.00,,,0.00,WUHU21623XXSP,2013-01-12 21:34:00,
2013-01-12 15:39:00,32.2,22.8,29.25,NNW,337,2.0,2.0,68,0.00,,,0.00,WUHU21623XXSP,2013-01-12 21:39:00,
2013-01-12 15:44:00,32.2,22.8,29.25,NNW,337,2.0,2.0,68,0.00,,,0.00,WUHU21623XXSP,2013-01-12 21:44:00,
2013-01-12 15:49:00,32.2,22.8,29.25,NNW,337,2.0,2.0,68,0.00,,,0.00,WUHU21623XXSP,2013-01-12 21:49:00,
2013-01-12 16:18:00,31.6,21.9,29.22,North,0,2.0,2.0,67,0.00,,,0.00,WUHU21623XXSP,2013-01-12 22:18:00,
2013-01-12 16:23:00,31.3,21.6,29.22,North,0,2.0,2.0,67,0.00,,,0.00,WUHU21623XXSP,2013-01-12 22:23:00,
2013-01-12 16:28:00,31.3,21.6,29.22,North,0,2.0,2.0,67,0.00,,,0.00,WUHU21623XXSP,2013-01-12 22:28:00,
2013-01-12 16:33:00,30.7,21.0,29.23,NW,315,0.0,2.0,67,0.00,,,0.00,WUHU21623XXSP,2013-01-12 22:33:00,
2013-01-12 16:38:00,30.6,21.0,29.22,NW,315,0.0,2.0,67,0.00,,,0.00,WUHU21623XXSP,2013-01-12 22:38:00,
2013-01-12 16:43:00,30.6,20.8,29.21,North,0,0.0,0.0,67,0.00,,,0.00,WUHU21623XXSP,2013-01-12 22:43:00,
2013-01-12 16:48:00,30.4,20.7,29.21,North,0,0.0,0.0,67,0.00,,,0.00,WUHU21623XXSP,2013-01-12 22:48:00,
2013-01-12 16:53:00,30.4,20.7,29.21,North,0,0.0,0.0,67,0.00,,,0.00,WUHU21623XXSP,2013-01-12 22:53:00,
2013-01-12 16:58:00,30.4,20.7,29.22,North,0,0.0,0.0,67,0.00,,,0.00,WUHU21623XXSP,2013-01-12 22:58:00,
2013-01-12 17:16:00,29.7,20.4,29.20,NNW,337,0.0,0.0,68,0.00,,,0.00,WUHU21623XXSP,2013-01-12 23:16:00,
2013-01-12 17:21:00,29.7,20.4,29.20,NNW,337,0.0,0.0,68,0.00,,,0.00,WUHU21623XXSP,2013-01-12 23:21:00,
2013-01-12 17:26:00,29.7,20.4,29.20,NNW,337,0.0,0.0,68,0.00,,,0.00,WUHU21623XXSP,2013-01-12 23:26:00,
2013-01-12 17:31:00,29.7,20.4,29.20,NNW,337,0.0,0.0,68,0.00,,,0.00,WUHU21623XXSP,2013-01-12 23:31:00,
2013-01-12 19:22:00,28.6,19.4,29.26,NNW,337,1.6,1.6,68,0.00,,,0.00,WUHU21623XXSP,2013-01-13 01:22:00,
2013-01-12 19:27:00,28.4,19.2,29.26,North,0,0.7,1.6,68,0.00,,,0.00,WUHU21623XXSP,2013-01-13 01:27:00,
2013-01-12 19:32:00,28.2,19.4,29.26,NE,45,0.0,1.6,69,0.00,,,0.00,WUHU21623XXSP,2013-01-13 01:32:00,
2013-01-12 19:37:00,28.2,19.4,29.26,NE,45,0.0,0.0,69,0.00,,,0.00,WUHU21623XXSP,2013-01-13 01:37:00,
2013-01-12 19:42:00,27.7,18.9,29.26,North,0,4.5,4.5,69,0.00,,,0.00,WUHU21623XXSP,2013-01-13 01:42:00,
2013-01-12 19:47:00,27.7,18.9,29.26,North,0,4.5,4.5,69,0.00,,,0.00,WUHU21623XXSP,2013-01-13 01:47:00,
2013-01-12 19:52:00,27.3,18.5,29.26,North,0,4.5,4.5,69,0.00,,,0.00,WUHU21623XXSP,2013-01-13 01:52:00,
2013-01-12 19:57:00,27.1,18.3,29.25,NE,45,2.5,4.5,69,0.00,,,0.00,WUHU21623XXSP,2013-01-13 01:57:00,
2013-01-12 20:02:00,27.0,18.1,29.25,NE,45,2.5,4.5,69,0.00,,,0.00,WUHU21623XXSP,2013-01-13 02:02:00,
2013-01-12 20:07:00,27.0,18.1,29.24,NE,45,2.5,2.5,69,0.00,,,0.00,WUHU21623XXSP,2013-01-13 02:07:00,
2013-01-12 20:12:00,26.6,17.8,29.23,NE,45,3.8,3.8,71,0.00,,,0.00,WUHU21623XXSP,2013-01-13 02:12:00,
2013-01-12 20:17:00,26.6,18.4,29.23,NNW,337,4.0,4.0,71,0.00,,,0.00,WUHU21623XXSP,2013-01-13 02:17:00,
2013-01-12 20:22:00,26.4,18.0,29.23,West,270,2.5,8.5,70,0.00,,,0.00,WUHU21623XXSP,2013-01-13 02:22:00,
2013-01-12 20:27:00,26.4,18.3,29.22,NE,45,7.4,8.5,71,0.00,,,0.00,WUHU21623XXSP,2013-01-13 02:27:00,
2013-01-12 20:32:00,26.2,18.1,29.22,NW,315,4.9,7.4,71,0.00,,,0.00,WUHU21623XXSP,2013-01-13 02:32:00,
2013-01-12 20:37:00,25.9,18.2,29.21,North,0,2.2,7.4,73,0.00,,,0.00,WUHU21623XXSP,2013-01-13 02:37:00,
2013-01-12 20:42:00,25.5,18.3,29.20,NE,45,3.6,4.9,74,0.00,,,0.00,WUHU21623XXSP,2013-01-13 02:42:00,
2013-01-12 20:47:00,25.2,18.3,29.18,NE,45,3.6,3.6,75,0.00,,,0.00,WUHU21623XXSP,2013-01-13 02:47:00,
2013-01-12 20:52:00,24.6,18.4,29.18,NE,45,4.7,4.7,76,0.00,,,0.00,WUHU21623XXSP,2013-01-13 02:52:00,
2013-01-12 20:57:00,24.4,18.6,29.18,NE,45,0.0,4.7,78,0.00,,,0.00,WUHU21623XXSP,2013-01-13 02:57:00,
2013-01-12 21:02:00,24.4,18.6,29.17,NE,45,0.0,3.8,79,0.00,,,0.00,WUHU21623XXSP,2013-01-13 03:02:00,
2013-01-12 21:07:00,24.1,18.5,29.17,NE,45,7.2,7.2,80,0.00,,,0.00,WUHU21623XXSP,2013-01-13 03:07:00,
2013-01-12 21:12:00,23.9,18.7,29.17,NNW,337,3.6,7.2,80,0.00,,,0.00,WUHU21623XXSP,2013-01-13 03:12:00,
2013-01-12 21:17:00,23.7,18.5,29.17,NNE,22,6.5,6.5,80,0.00,,,0.00,WUHU21623XXSP,2013-01-13 03:17:00,
2013-01-12 21:22:00,23.7,18.5,29.17,North,0,4.9,6.5,80,0.00,,,0.00,WUHU21623XXSP,2013-01-13 03:22:00,
2013-01-12 21:27:00,23.5,18.3,29.18,North,0,4.9,4.9,80,0.00,,,0.00,WUHU21623XXSP,2013-01-13 03:27:00,
2013-01-12 21:32:00,23.5,18.3,29.18,North,0,4.9,4.9,80,0.00,,,0.00,WUHU21623XXSP,2013-01-13 03:32:00,
2013-01-12 21:37:00,23.5,18.0,29.19,NNW,337,1.1,4.9,79,0.00,,,0.00,WUHU21623XXSP,2013-01-13 03:37:00,
2013-01-12 21:42:00,23.4,17.8,29.19,North,0,7.4,7.4,79,0.00,,,0.00,WUHU21623XXSP,2013-01-13 03:42:00,
2013-01-12 21:47:00,23.4,17.8,29.19,NE,45,6.9,7.4,79,0.00,,,0.00,WUHU21623XXSP,2013-01-13 03:47:00,
2013-01-12 21:52:00,23.2,17.3,29.20,NNW,337,5.6,8.1,78,0.00,,,0.00,WUHU21623XXSP,2013-01-13 03:52:00,
2013-01-12 21:57:00,23.0,17.2,29.20,WNW,292,5.4,8.1,78,0.00,,,0.00,WUHU21623XXSP,2013-01-13 03:57:00,
2013-01-12 22:02:00,22.8,17.0,29.20,NNE,22,1.3,6.3,78,0.00,,,0.00,WUHU21623XXSP,2013-01-13 04:02:00,
2013-01-12 22:07:00,22.8,17.0,29.21,NNW,337,0.0,6.3,78,0.00,,,0.00,WUHU21623XXSP,2013-01-13 04:07:00,
2013-01-12 22:12:00,22.8,17.3,29.21,NNW,337,0.0,4.0,79,0.00,,,0.00,WUHU21623XXSP,2013-01-13 04:12:00,
2013-01-12 22:17:00,22.8,17.3,29.22,NE,45,0.0,0.0,79,0.00,,,0.00,WUHU21623XXSP,2013-01-13 04:17:00,
2013-01-12 22:22:00,22.8,17.3,29.23,North,0,0.0,0.0,79,0.00,,,0.00,WUHU21623XXSP,2013-01-13 04:22:00,
2013-01-12 22:27:00,22.8,17.3,29.23,NNW,337,0.0,0.0,79,0.00,,,0.00,WUHU21623XXSP,2013-01-13 04:27:00,
2013-01-12 22:32:00,22.8,17.3,29.23,North,0,0.0,0.0,79,0.00,,,0.00,WUHU21623XXSP,2013-01-13 04:32:00,
2013-01-12 22:37:00,22.8,17.3,29.23,NNE,22,4.7,4.7,79,0.00,,,0.00,WUHU21623XXSP,2013-01-13 04:37:00,
2013-01-12 22:42:00,22.8,17.6,29.23,NNE,22,0.0,4.7,80,0.00,,,0.00,WUHU21623XXSP,2013-01-13 04:42:00,
2013-01-12 23:02:00,22.6,17.4,29.22,NNE,23,0.0,0.0,80,0.00,,,0.00,WUHU21623XXSP,2013-01-13 05:02:00,